Hourly Data Report for July 15, 2021

BONAVISTA
NEWFOUNDLAND
Current Station Operator: ECCC - MSC

48°40'02.000" N
53°06'51.000" W
25.60 m
8400601
71178
AVA

Download Data

Hourly Data (July 2021)
Hourly Data Report for July 15, 2021
TIME
LST
Temp Definition
°C
Dew Point Definition
°C
Rel Hum Definition
%
Precip. Amount Definition
mm

Wind Dir Definition
10's deg

Wind Spd Definition
km/h
Visibility Definition
km
Stn Press Definition
kPa
Hmdx Definition


Wind Chill Definition


Weather Definition


00:30 16.0 10.2 68 0.0 23 28   101.87     LegendNANA
01:30 15.2 10.3 72 0.0 24 28   101.90     LegendNANA
02:30 14.4 10.4 77 0.0 23 26   101.91     LegendNANA
03:30 14.0 10.5 79 0.0 23 25   101.94     LegendNANA
04:30 13.6 10.6 82 0.0 23 24   101.98     LegendNANA
05:30 14.0 10.4 79 0.0 23 23   101.98     LegendNANA
06:30 14.6 10.6 77 0.0 23 22   101.99     LegendNANA
07:30 15.9 10.9 72 0.0 23 24   101.98     LegendNANA
08:30 17.5 10.2 62 0.0 24 28   101.97     LegendNANA
09:30 18.8 9.8 56 0.0 24 28   101.94     LegendNANA
10:30 20.0 10.6 55 0.0 25 26   101.92     LegendNANA
11:30 20.4 9.3 49 0.0 24 23   101.87     LegendNANA
12:30 20.8 9.1 47 0.0 24 25   101.83     LegendNANA
13:30 22.3 9.8 45 0.0 24 26   101.76     LegendNANA
14:30 20.8 10.4 51 0.0 25 23   101.73     LegendNANA
15:30 20.5 8.8 47 0.0 24 32   101.72     LegendNANA
16:30 19.2 11.4 61 0.0 23 31   101.68     LegendNANA
17:30 19.1 11.3 61 0.0 23 34   101.65     LegendNANA
18:30 18.0 11.7 66 0.0 23 32   101.66     LegendNANA
19:30 17.0 11.8 72 0.0 24 37   101.69     LegendNANA
20:30 16.3 12.4 78 0.0 23 35   101.74     LegendNANA
21:30 16.4 12.7 79 0.0 23 35   101.74     LegendNANA
22:30 15.5 12.6 83 0.0 23 38   101.73     LegendNANA
23:30 15.0 12.6 85 0.0 24 37   101.73     LegendNANA

Notes on Data Quality.

Legend

  • E = Estimated
  • M = Missing
  • NA = Not Available*
  • [empty] = Indicates an unobserved value
Date modified: